STARLINK-36142, 66981

Orbit data source: Space-Track

STARLINK-36142, 66981 is a payload satellite owned by SpaceX/Seattle (US) in LEO that was launched on Mon, 08 Dec 2025 UTC via an FALCON 9 launch vehicle from the Air Force Eastern Test Range (AFETR). Payload-class satellites include a variety of spacecraft equipped with specific instruments for various scientific and technological missions. These include communications satellites like Starlink; space stations such as the ISS; scientific satellites like the Hubble; Earth observation satellites from companies like Planet Labs, Umbra, and HawkEye 360; GPS; miniature CubeSats for education and research; and military/defense satellites.

Loading next visibility...
Identifier
66981, 2025-288Y
Orbit
LEO
Country
Flag of USUS
Related business
Manufacturer
SpaceX/Seattle
Mission
Operational Commercial Communications
Bus & Motor
STARLINK V2MO, Unknown motor
Mass
575 kg wet, ~530 kg dry
Launch date (UTC)
2025-12-08 (7 months ago)
Launch vehicle
FALCON 9
Launch site
Air Force Eastern Test Range (AFETR)
Object type
Payload
Rocket body
Debris
Shape & HBR
Box + 2 Pan, 17.7 m
Radar Cross Section
36.964 m², Large (>1 m²)

Expand to show TLE details & history
Last TLE update: 2 days ago

TLE from 2 days ago
0 STARLINK-36142
1 66981U 25288Y   26175.90840418  .00014927  00000-0  55057-3 0  9998
2 66981  42.9986 138.0622 0001287 269.4855  90.5849 15.27596240 31683
Epoch: 2026-06-24T21:48Z
TLE epoch observation values (Epoch: 2026-06-24T21:48:06.121Z)
Latitude
-0.00001°
Longitude
-102.02219°
Altitude
482.785 km
Speed
7.626 km/s
True Right ascension
09h 12m 14s
True Declination
0° 00' 00"
Sunlit
Object was in daylight at epoch
Visualization orbit readout
Latitude
Unknown
Longitude
Unknown
Altitude
Unknown
Speed
Unknown
Apparent Right ascension
Unknown
Apparent Declination
Unknown
Sunlit
N/A
Visualization observer readout
Local Sidereal Time
10:40:45
Azimuth
Unknown
Elevation
Unknown
Doppler factor
Unknown
Orbital elements
Apogee altitude
485.829 km
Perigee altitude
484.063 km
Semi-major axis
6,863.083 km
Eccentricity
0.00013
Inclination
42.9986°
RAAN
138.0622°
Arg. of periapsis
269.4855°
True anomaly
90.59965°
Mean anomaly
90.5849°
Eccentric anomaly
90.59227°
Mean motion
3.81737 °/min
Orbital period
94.31 mins
BSTAR
0.00055057
Loading maneuver chart data...
Computing Atmospheric mass density...
Loading historical data...
Loading historical data...
Loading historical data...
Loading historical data...
Loading historical data...
Loading historical data...
Loading historical data...

Documentation

Showing up to 5 results
|